• En España
  • Lista de países
  • Para 7 días
  • Temperatura del agua
  • Mapa Satelital
  • El tiempo en el mapa
  • Informadores
  • user-avatar
    Iniciar sesión

    Tiempo cada hora Perth

    Hoy, 20 Octubre, Viernes

    Tiempo Temperatura Precipitaciones Viento Presión Humedad
    00:00 +16°C° 0 mm 5 mps 766 mmHg 43%
    01:00 +16°C° 0 mm 6 mps 766 mmHg 45%
    02:00 +17°C° 0 mm 8 mps 766 mmHg 42%
    03:00 +16°C° 0 mm 7 mps 766 mmHg 44%
    04:00 +16°C° 0 mm 7 mps 766 mmHg 46%
    05:00 +16°C° 0 mm 7 mps 766 mmHg 48%
    06:00 +17°C° 0 mm 7 mps 766 mmHg 46%
    07:00 +18°C° 0 mm 7 mps 766 mmHg 44%
    08:00 +21°C° 0 mm 8 mps 767 mmHg 41%
    09:00 +23°C° 0 mm 7 mps 766 mmHg 38%
    10:00 +26°C° 0 mm 6 mps 766 mmHg 35%
    11:00 +28°C° 0 mm 6 mps 766 mmHg 31%
    12:00 +29°C° 0 mm 5 mps 765 mmHg 29%
    13:00 +30°C° 0 mm 4 mps 765 mmHg 27%
    14:00 +32°C° 0 mm 4 mps 764 mmHg 25%
    15:00 +32°C° 0 mm 4 mps 764 mmHg 26%
    16:00 +30°C° 0 mm 3 mps 764 mmHg 28%
    17:00 +30°C° 0 mm 3 mps 764 mmHg 29%
    18:00 +28°C° 0 mm 3 mps 764 mmHg 31%
    19:00 +26°C° 0 mm 4 mps 764 mmHg 33%
    20:00 +23°C° 0 mm 4 mps 765 mmHg 35%
    21:00 +23°C° 0 mm 5 mps 765 mmHg 33%
    22:00 +23°C° 0 mm 6 mps 764 mmHg 31%
    23:00 +23°C° 0 mm 6 mps 764 mmHg 29%

    Mañana, 21 Octubre, Sábado

    Tiempo Temperatura Precipitaciones Viento Presión Humedad
    00:00 +22°C° 0 mm 6 mps 764 mmHg 29%
    01:00 +22°C° 0 mm 6 mps 764 mmHg 29%
    02:00 +21°C° 0 mm 6 mps 763 mmHg 29%
    03:00 +21°C° 0 mm 6 mps 763 mmHg 29%
    04:00 +21°C° 0 mm 6 mps 763 mmHg 29%
    05:00 +21°C° 0 mm 6 mps 763 mmHg 29%
    06:00 +22°C° 0 mm 6 mps 763 mmHg 30%
    07:00 +23°C° 0 mm 7 mps 763 mmHg 31%
    08:00 +24°C° 0 mm 7 mps 763 mmHg 32%
    09:00 +26°C° 0 mm 7 mps 763 mmHg 33%
    10:00 +26°C° 0 mm 7 mps 763 mmHg 33%
    11:00 +27°C° 0 mm 8 mps 763 mmHg 34%
    12:00 +28°C° 0 mm 8 mps 762 mmHg 35%
    13:00 +29°C° 0 mm 7 mps 761 mmHg 36%
    14:00 +29°C° 0 mm 7 mps 761 mmHg 37%
    15:00 +28°C° 0,2 mm 7 mps 761 mmHg 41%
    16:00 +27°C° 0,2 mm 6 mps 760 mmHg 45%
    17:00 +26°C° 0,2 mm 5 mps 760 mmHg 50%
    18:00 +24°C° 0,1 mm 6 mps 760 mmHg 51%
    19:00 +23°C° 0,1 mm 7 mps 760 mmHg 52%
    20:00 +23°C° 0,1 mm 8 mps 760 mmHg 54%
    21:00 +22°C° 0,2 mm 8 mps 760 mmHg 57%
    22:00 +22°C° 0,2 mm 8 mps 760 mmHg 61%
    23:00 +21°C° 0,2 mm 8 mps 759 mmHg 64%

    Pasado mañana, 22 Octubre, Domingo

    Tiempo Temperatura Precipitaciones Viento Presión Humedad
    00:00 +21°C° 0,1 mm 7 mps 759 mmHg 63%
    01:00 +21°C° 0,1 mm 7 mps 758 mmHg 61%
    02:00 +21°C° 0,1 mm 6 mps 758 mmHg 59%
    03:00 +21°C° 0,1 mm 5 mps 758 mmHg 64%
    04:00 +20°C° 0,1 mm 5 mps 757 mmHg 68%
    05:00 +19°C° 0,1 mm 4 mps 757 mmHg 73%
    06:00 +20°C° 0 mm 4 mps 757 mmHg 69%
    07:00 +21°C° 0 mm 3 mps 757 mmHg 65%
    08:00 +22°C° 0 mm 3 mps 757 mmHg 60%
    09:00 +25°C° 0 mm 3 mps 757 mmHg 54%
    10:00 +27°C° 0 mm 3 mps 757 mmHg 49%
    11:00 +29°C° 0 mm 3 mps 757 mmHg 43%
    12:00 +29°C° 0 mm 4 mps 757 mmHg 43%
    13:00 +29°C° 0 mm 4 mps 756 mmHg 43%
    14:00 +29°C° 0 mm 5 mps 756 mmHg 44%
    15:00 +27°C° 0 mm 4 mps 756 mmHg 48%
    16:00 +26°C° 0 mm 4 mps 756 mmHg 52%
    17:00 +25°C° 0 mm 4 mps 756 mmHg 56%
    18:00 +24°C° 0 mm 3 mps 757 mmHg 65%
    19:00 +21°C° 0 mm 3 mps 757 mmHg 75%
    20:00 +19°C° 0 mm 3 mps 757 mmHg 84%
    21:00 +18°C° 0 mm 2 mps 758 mmHg 86%
    22:00 +18°C° 0 mm 2 mps 758 mmHg 88%
    23:00 +18°C° 0 mm 2 mps 758 mmHg 89%

    23 Octubre, Lunes

    Tiempo Temperatura Precipitaciones Viento Presión Humedad
    00:00 +18°C° 0 mm 2 mps 758 mmHg 91%
    01:00 +17°C° 0 mm 2 mps 757 mmHg 92%
    02:00 +17°C° 0 mm 2 mps 757 mmHg 93%
    03:00 +17°C° 0 mm 2 mps 757 mmHg 94%
    04:00 +17°C° 0 mm 2 mps 757 mmHg 94%
    05:00 +17°C° 0 mm 2 mps 757 mmHg 94%
    06:00 +19°C° 0 mm 2 mps 758 mmHg 88%
    07:00 +20°C° 0 mm 2 mps 758 mmHg 82%
    08:00 +23°C° 0 mm 2 mps 759 mmHg 75%
    09:00 +24°C° 0 mm 3 mps 759 mmHg 68%
    10:00 +26°C° 0 mm 4 mps 759 mmHg 62%
    11:00 +27°C° 0 mm 4 mps 759 mmHg 55%
    12:00 +27°C° 0 mm 5 mps 758 mmHg 55%
    13:00 +27°C° 0 mm 5 mps 758 mmHg 55%
    14:00 +27°C° 0 mm 5 mps 758 mmHg 55%
    15:00 +26°C° 0 mm 5 mps 758 mmHg 59%
    16:00 +25°C° 0 mm 5 mps 758 mmHg 63%
    17:00 +23°C° 0 mm 5 mps 758 mmHg 67%
    18:00 +21°C° 0 mm 5 mps 759 mmHg 75%
    19:00 +20°C° 0 mm 5 mps 759 mmHg 82%
    20:00 +17°C° 0 mm 5 mps 760 mmHg 90%
    21:00 +18°C° 0 mm 4 mps 760 mmHg 90%
    22:00 +18°C° 0 mm 4 mps 760 mmHg 90%
    23:00 +18°C° 0 mm 4 mps 761 mmHg 91%

    24 Octubre, Martes

    Tiempo Temperatura Precipitaciones Viento Presión Humedad
    00:00 +17°C° 0 mm 4 mps 760 mmHg 91%
    01:00 +17°C° 0 mm 4 mps 760 mmHg 91%
    02:00 +17°C° 0 mm 4 mps 760 mmHg 91%
    03:00 +17°C° 0 mm 3 mps 760 mmHg 91%
    04:00 +17°C° 0 mm 3 mps 760 mmHg 91%
    05:00 +17°C° 0 mm 3 mps 761 mmHg 92%
    06:00 +17°C° 0 mm 3 mps 761 mmHg 87%
    07:00 +18°C° 0 mm 3 mps 762 mmHg 83%
    08:00 +19°C° 0 mm 3 mps 762 mmHg 79%
    09:00 +21°C° 0 mm 2 mps 762 mmHg 68%
    10:00 +24°C° 0 mm 2 mps 762 mmHg 57%
    11:00 +26°C° 0 mm 2 mps 762 mmHg 46%
    12:00 +26°C° 0 mm 3 mps 761 mmHg 44%
    13:00 +26°C° 0 mm 4 mps 761 mmHg 42%
    14:00 +26°C° 0 mm 4 mps 760 mmHg 41%
    15:00 +25°C° 0 mm 4 mps 760 mmHg 44%
    16:00 +23°C° 0 mm 5 mps 760 mmHg 48%
    17:00 +22°C° 0 mm 5 mps 760 mmHg 51%
    18:00 +20°C° 0 mm 4 mps 761 mmHg 59%
    19:00 +19°C° 0 mm 4 mps 761 mmHg 68%
    20:00 +17°C° 0 mm 4 mps 762 mmHg 76%
    21:00 +15°C° 0 mm 4 mps 762 mmHg 80%
    22:00 +16°C° 0 mm 3 mps 762 mmHg 84%
    23:00 +14°C° 0 mm 3 mps 762 mmHg 88%

    25 Octubre, Miércoles

    Tiempo Temperatura Precipitaciones Viento Presión Humedad
    00:00 +15°C° 0 mm 2 mps 762 mmHg 89%
    01:00 +15°C° 0 mm 2 mps 762 mmHg 90%
    02:00 +15°C° 0 mm 2 mps 761 mmHg 90%
    03:00 +15°C° 0 mm 2 mps 761 mmHg 90%
    04:00 +15°C° 0 mm 2 mps 761 mmHg 90%
    05:00 +15°C° 0 mm 2 mps 761 mmHg 90%
    06:00 +16°C° 0 mm 2 mps 762 mmHg 84%
    07:00 +18°C° 0 mm 2 mps 762 mmHg 77%
    08:00 +20°C° 0 mm 3 mps 763 mmHg 70%
    09:00 +21°C° 0 mm 3 mps 762 mmHg 65%
    10:00 +22°C° 0 mm 3 mps 762 mmHg 60%
    11:00 +23°C° 0 mm 4 mps 762 mmHg 55%
    12:00 +25°C° 0 mm 4 mps 762 mmHg 55%
    13:00 +25°C° 0 mm 5 mps 761 mmHg 55%
    14:00 +25°C° 0 mm 5 mps 761 mmHg 54%
    15:00 +23°C° 0 mm 5 mps 761 mmHg 57%
    16:00 +23°C° 0 mm 4 mps 761 mmHg 60%
    17:00 +22°C° 0 mm 4 mps 761 mmHg 64%
    18:00 +20°C° 0 mm 4 mps 761 mmHg 71%
    19:00 +19°C° 0 mm 3 mps 762 mmHg 79%
    20:00 +17°C° 0 mm 2 mps 762 mmHg 86%
    21:00 +17°C° 0 mm 2 mps 762 mmHg 88%
    22:00 +17°C° 0 mm 2 mps 762 mmHg 89%
    23:00 +16°C° 0 mm 2 mps 762 mmHg 91%
    Mostrar más